Terminal Aerodrome Forecast
Issued by NWS Amarillo, TX

Home | Current Version | Previous Version | Text Only | Print | Product List | Glossary On
Versions: 1 2 3 4 5 6 7 8 9 10 11 12 13
000
FTUS44 KAMA 251700
TAFGUY
TAF
KGUY 251734Z 2518/2618 22014G22KT P6SM FEW200
     FM260100 19011KT P6SM SCT100
     FM261500 27012KT P6SM BKN100=

USA.gov is the U.S. government's official web portal to all federal, state and local government web resources and services.